Home   Weather   Paris 10   Past weeks
Flag for France

Past Weather in Paris 10, Paris, France — Yesterday and Last 2 Weeks

Now
66 °F

Clear.


Feels Like: 66 °F
Forecast: 84 / 58 °F
Wind: 7 mph from East

Location: Villacoublay

Current Time: Jul 17, 2019 at 1:09:02 am

Latest Report: Jul 17, 2019 at 12:00 am


Visibility: 10 mi

Pressure: 30.04 "Hg

Humidity: 52%

Dew Point: 48 °F

Location of Paris 10Location

Past Weather in Paris 10 — Graph

°F

Paris 10 Temperature Yesterday

Maximum temperature yesterday: 77 °F (at 5:00 pm)
Minimum temperature yesterday: 54 °F (at 6:00 am)
Average temperature yesterday: 67 °F

High & Low Weather Summary for the Past Weeks

 TemperatureHumidityPressure
High88 °F (Jul 6, 3:30 pm)88% (Jul 2, 5:00 am)30.21 "Hg (Jul 2, 5:00 am)
Low54 °F (Jul 2, 5:00 am)24% (Jul 5, 5:30 pm)29.86 "Hg (Jul 6, 4:00 pm)
Average69 °F54%30.07 "Hg
* Reported Jul 1 11:00 pm — Jul 16 11:30 pm, Paris 10. Weather by CustomWeather, © 2019

Note: Actual official high and low records may vary slightly from our data, if they occured in-between our weather recording intervals... More about our weather records

Advertising

Paris 10 Weather History for the Previous 24 Hours

Scroll right to see more
 ConditionsComfort  
Time TempWeatherWind HumidityBarometerVisibility
11:30 pm
Tue, Jul 16
68 °FClear.7 mph49%30.04 "Hg10 mi
11:00 pm70 °FClear.8 mph46%30.04 "Hg10 mi
10:30 pm70 °FClear.6 mph46%30.04 "Hg10 mi
10:00 pm72 °FClear.5 mph44%30.04 "Hg10 mi
9:30 pm73 °FSunny.3 mph41%30.04 "Hg10 mi
9:00 pm75 °FSunny.3 mph39%30.04 "Hg10 mi
8:30 pm77 °FSunny.3 mph34%30.04 "Hg10 mi
8:00 pm77 °FPassing clouds.3 mph34%30.04 "HgN/A
7:30 pm77 °FPassing clouds.5 mph34%30.04 "HgN/A
7:00 pm77 °FPassing clouds.7 mph34%30.04 "HgN/A
6:30 pm77 °FPassing clouds.5 mph36%30.04 "HgN/A
6:00 pm77 °FSunny.2 mph36%30.04 "Hg10 mi
5:30 pm77 °FPassing clouds.5 mph36%30.04 "HgN/A
5:00 pm77 °FSunny.5 mph36%30.07 "Hg10 mi
4:30 pm75 °FPassing clouds.3 mph36%30.07 "HgN/A
4:00 pm73 °FPassing clouds.5 mph41%30.07 "HgN/A
3:30 pm73 °FPassing clouds.7 mph38%30.07 "HgN/A
3:00 pm73 °FSunny.5 mph41%30.07 "Hg10 mi
2:30 pm73 °FPassing clouds.7 mph41%30.07 "HgN/A
2:00 pm72 °FSunny.3 mph44%30.09 "Hg10 mi
1:30 pm72 °FPassing clouds.5 mph44%30.09 "HgN/A
1:00 pm70 °FSunny.6 mph50%30.09 "Hg10 mi
12:30 pm70 °FPassing clouds.5 mph46%30.09 "HgN/A
12:00 pm70 °FSunny.5 mph50%30.09 "Hg10 mi
11:30 am66 °FPassing clouds.6 mph56%30.09 "HgN/A
11:00 am66 °FPassing clouds.6 mph56%30.09 "HgN/A
10:30 am64 °FSunny.7 mph60%30.12 "Hg10 mi
10:00 am64 °FPassing clouds.3 mph60%30.12 "HgN/A
9:30 am64 °FPassing clouds.5 mph56%30.12 "HgN/A
9:00 am63 °FSunny.8 mph59%30.12 "Hg10 mi
8:30 am61 °FSunny.9 mph63%30.12 "Hg10 mi
8:00 am61 °FSunny.7 mph68%30.12 "Hg10 mi
7:30 am59 °FSunny.6 mph72%30.12 "Hg10 mi
7:00 am57 °FSunny.3 mph77%30.09 "Hg10 mi
6:30 am55 °FSunny.3 mph77%30.09 "Hg10 mi
6:00 am54 °FClear.6 mph82%30.09 "Hg10 mi
5:30 am55 °FClear.7 mph77%30.09 "Hg10 mi
5:00 am57 °FClear.6 mph72%30.09 "Hg10 mi
4:30 am57 °FClear.7 mph72%30.09 "Hg10 mi
4:00 am57 °FClear.6 mph72%30.12 "Hg10 mi
3:30 am57 °FClear.7 mph72%30.12 "Hg10 mi
3:00 am59 °FClear.7 mph72%30.12 "Hg10 mi
2:30 am59 °FClear.7 mph72%30.12 "Hg10 mi
2:00 am59 °FClear.7 mph72%30.12 "Hg10 mi
1:30 am61 °FClear.8 mph68%30.12 "Hg10 mi
1:00 am61 °FClear.6 mph68%30.12 "Hg10 mi
Weather by CustomWeather, © 2019

See weather overview

LIVE PARTIAL LUNAR ECLIPSE – Watch the eclipse as it happens